Time,TemperatureF,DewpointF,PressureIn,WindDirection,WindDirectionDegrees,WindSpeedMPH,WindSpeedGustMPH,Humidity,HourlyPrecipIn,Conditions,Clouds,dailyrainin,SoftwareType,DateUTC
2013-03-06 00:01:00,47.7,46.6,29.66,WNW,297,2.0,7.0,96,0.02,,,0.27,meteohub,2013-03-06 08:01:00,
2013-03-06 00:06:00,47.5,46.4,29.66,WNW,298,1.0,6.0,96,0.03,,,0.28,meteohub,2013-03-06 08:06:00,
2013-03-06 00:11:00,47.5,46.4,29.67,WNW,298,4.0,5.0,96,0.04,,,0.29,meteohub,2013-03-06 08:11:00,
2013-03-06 00:16:00,47.5,46.4,29.67,WNW,298,4.0,5.0,96,0.05,,,0.30,meteohub,2013-03-06 08:16:00,
2013-03-06 00:21:00,47.7,46.9,29.67,WNW,302,5.0,7.0,97,0.06,,,0.31,meteohub,2013-03-06 08:21:00,
2013-03-06 00:26:00,47.8,46.9,29.66,West,274,0.0,9.0,97,0.06,,,0.31,meteohub,2013-03-06 08:26:00,
2013-03-06 00:31:00,48.0,46.9,29.66,West,281,0.0,9.0,96,0.06,,,0.31,meteohub,2013-03-06 08:31:00,
2013-03-06 00:36:00,48.0,46.9,29.66,West,281,0.0,9.0,96,0.06,,,0.32,meteohub,2013-03-06 08:36:00,
2013-03-06 00:42:00,48.4,47.5,29.68,WNW,284,2.0,9.0,97,0.07,,,0.33,meteohub,2013-03-06 08:42:00,
2013-03-06 00:47:00,48.4,47.3,29.68,WNW,284,5.0,10.0,96,0.07,,,0.33,meteohub,2013-03-06 08:47:00,
2013-03-06 00:52:00,48.6,47.5,29.68,West,271,1.0,10.0,96,0.06,,,0.33,meteohub,2013-03-06 08:52:00,
2013-03-06 00:57:00,48.6,47.5,29.68,West,265,2.0,10.0,96,0.06,,,0.33,meteohub,2013-03-06 08:57:00,
2013-03-06 01:02:00,48.6,47.5,29.68,West,268,2.0,9.0,96,0.07,,,0.34,meteohub,2013-03-06 09:02:00,
2013-03-06 01:07:00,48.4,47.3,29.68,West,272,5.0,6.0,96,0.06,,,0.35,meteohub,2013-03-06 09:07:00,
2013-03-06 01:12:00,47.8,46.2,29.69,NW,304,0.0,11.0,94,0.07,,,0.36,meteohub,2013-03-06 09:12:00,
2013-03-06 01:17:00,47.7,46.0,29.69,NW,304,0.0,13.0,94,0.06,,,0.37,meteohub,2013-03-06 09:17:00,
2013-03-06 01:22:00,47.3,45.9,29.69,NW,306,3.0,13.0,95,0.08,,,0.39,meteohub,2013-03-06 09:22:00,
2013-03-06 01:27:00,46.9,45.5,29.69,NW,306,1.0,13.0,95,0.08,,,0.39,meteohub,2013-03-06 09:27:00,
2013-03-06 01:32:00,46.8,45.3,29.69,NW,306,1.0,7.0,95,0.10,,,0.41,meteohub,2013-03-06 09:32:00,
2013-03-06 01:37:00,46.8,45.3,29.69,NW,306,0.0,7.0,95,0.09,,,0.41,meteohub,2013-03-06 09:37:00,
2013-03-06 01:42:00,46.4,45.0,29.69,West,272,0.0,6.0,95,0.10,,,0.43,meteohub,2013-03-06 09:42:00,
2013-03-06 01:47:00,46.2,44.8,29.69,West,273,0.0,7.0,95,0.12,,,0.45,meteohub,2013-03-06 09:47:00,
2013-03-06 01:52:00,46.0,44.6,29.69,West,273,0.0,7.0,95,0.13,,,0.46,meteohub,2013-03-06 09:52:00,
2013-03-06 01:57:00,46.0,45.0,29.70,West,273,0.0,7.0,96,0.14,,,0.47,meteohub,2013-03-06 09:57:00,
2013-03-06 02:02:00,46.0,45.0,29.70,West,273,1.0,4.0,96,0.14,,,0.48,meteohub,2013-03-06 10:02:00,
2013-03-06 02:07:00,45.9,44.4,29.70,West,273,0.0,3.0,95,0.14,,,0.49,meteohub,2013-03-06 10:07:00,
2013-03-06 02:12:00,45.9,44.4,29.69,West,273,0.0,4.0,95,0.12,,,0.49,meteohub,2013-03-06 10:12:00,
2013-03-06 02:17:00,45.9,44.8,29.69,West,273,0.0,4.0,96,0.11,,,0.49,meteohub,2013-03-06 10:17:00,
2013-03-06 02:22:00,46.0,45.0,29.69,West,273,0.0,6.0,96,0.10,,,0.49,meteohub,2013-03-06 10:22:00,
2013-03-06 02:27:00,46.0,45.0,29.69,West,273,0.0,6.0,96,0.09,,,0.49,meteohub,2013-03-06 10:27:00,
2013-03-06 02:32:00,45.9,44.8,29.69,West,273,0.0,2.0,96,0.08,,,0.49,meteohub,2013-03-06 10:32:00,
2013-03-06 02:37:00,46.0,45.0,29.69,West,273,5.0,5.0,96,0.07,,,0.49,meteohub,2013-03-06 10:37:00,
2013-03-06 02:42:00,46.4,45.3,29.70,West,274,0.0,5.0,96,0.07,,,0.50,meteohub,2013-03-06 10:42:00,
2013-03-06 02:47:00,46.2,45.1,29.70,West,274,0.0,5.0,96,0.06,,,0.51,meteohub,2013-03-06 10:47:00,
2013-03-06 02:52:00,46.2,44.8,29.70,West,273,1.0,5.0,95,0.04,,,0.51,meteohub,2013-03-06 10:52:00,
2013-03-06 02:57:00,46.0,44.6,29.70,West,271,2.0,5.0,95,0.03,,,0.51,meteohub,2013-03-06 10:57:00,
2013-03-06 03:02:00,45.9,44.2,29.70,West,275,3.0,12.0,94,0.03,,,0.52,meteohub,2013-03-06 11:02:00,
2013-03-06 03:07:00,45.9,44.2,29.70,West,275,1.0,12.0,94,0.03,,,0.52,meteohub,2013-03-06 11:07:00,
2013-03-06 03:12:00,45.5,43.9,29.71,West,275,0.0,6.0,94,0.03,,,0.52,meteohub,2013-03-06 11:12:00,
2013-03-06 03:17:00,45.3,43.7,29.71,West,275,0.0,4.0,94,0.03,,,0.52,meteohub,2013-03-06 11:17:00,
2013-03-06 03:22:00,45.1,43.5,29.71,West,275,0.0,4.0,94,0.03,,,0.52,meteohub,2013-03-06 11:22:00,
2013-03-06 03:27:00,44.8,43.2,29.71,West,275,0.0,4.0,94,0.03,,,0.52,meteohub,2013-03-06 11:27:00,
2013-03-06 03:32:00,44.8,43.5,29.71,West,275,0.0,2.0,95,0.03,,,0.52,meteohub,2013-03-06 11:32:00,
2013-03-06 03:37:00,44.4,43.2,29.71,West,275,0.0,2.0,95,0.03,,,0.52,meteohub,2013-03-06 11:37:00,
2013-03-06 03:42:00,44.8,43.7,29.72,West,275,0.0,4.0,96,0.01,,,0.52,meteohub,2013-03-06 11:42:00,
2013-03-06 03:47:00,44.8,43.7,29.72,West,275,0.0,4.0,96,0.01,,,0.52,meteohub,2013-03-06 11:47:00,
2013-03-06 03:52:00,44.8,43.7,29.72,West,275,0.0,4.0,96,0.01,,,0.52,meteohub,2013-03-06 11:52:00,
2013-03-06 03:57:00,45.0,43.9,29.72,West,275,0.0,3.0,96,0.01,,,0.52,meteohub,2013-03-06 11:57:00,
2013-03-06 04:02:00,45.0,43.9,29.72,West,275,0.0,3.0,96,0.00,,,0.52,meteohub,2013-03-06 12:02:00,
2013-03-06 04:07:00,45.1,44.1,29.72,West,275,0.0,3.0,96,0.00,,,0.52,meteohub,2013-03-06 12:07:00,
2013-03-06 04:12:00,45.3,44.6,29.73,West,275,3.0,3.0,97,0.01,,,0.53,meteohub,2013-03-06 12:12:00,
2013-03-06 04:17:00,45.3,44.2,29.73,West,275,2.0,5.0,96,0.01,,,0.53,meteohub,2013-03-06 12:17:00,
2013-03-06 04:22:00,45.5,45.5,29.73,West,275,1.0,5.0,100,0.03,,,0.55,meteohub,2013-03-06 12:22:00,
2013-03-06 04:27:00,45.7,44.6,29.73,West,275,1.0,5.0,96,0.03,,,0.55,meteohub,2013-03-06 12:27:00,
2013-03-06 04:32:00,45.9,44.8,29.73,West,275,1.0,5.0,96,0.03,,,0.55,meteohub,2013-03-06 12:32:00,
2013-03-06 04:37:00,45.9,44.8,29.73,West,275,0.0,5.0,96,0.03,,,0.55,meteohub,2013-03-06 12:37:00,
2013-03-06 04:42:00,45.9,44.8,29.75,West,275,0.0,5.0,96,0.03,,,0.55,meteohub,2013-03-06 12:42:00,
2013-03-06 04:47:00,45.9,44.8,29.75,West,276,6.0,6.0,96,0.03,,,0.55,meteohub,2013-03-06 12:47:00,
2013-03-06 04:52:00,45.9,44.4,29.75,West,276,0.0,6.0,95,0.03,,,0.55,meteohub,2013-03-06 12:52:00,
2013-03-06 04:57:00,45.7,44.4,29.75,West,276,0.0,6.0,95,0.03,,,0.55,meteohub,2013-03-06 12:57:00,
2013-03-06 05:02:00,45.7,44.4,29.75,West,276,4.0,6.0,95,0.03,,,0.55,meteohub,2013-03-06 13:02:00,
2013-03-06 05:07:00,45.7,44.4,29.75,West,276,2.0,5.0,95,0.03,,,0.55,meteohub,2013-03-06 13:07:00,
2013-03-06 05:12:00,45.7,44.4,29.76,West,276,0.0,5.0,95,0.02,,,0.55,meteohub,2013-03-06 13:12:00,
2013-03-06 05:17:00,45.7,44.4,29.76,West,276,0.0,5.0,95,0.01,,,0.55,meteohub,2013-03-06 13:17:00,
2013-03-06 05:22:00,45.7,44.4,29.76,West,276,0.0,7.0,95,0.00,,,0.55,meteohub,2013-03-06 13:22:00,
2013-03-06 05:27:00,45.7,44.4,29.77,West,276,1.0,7.0,95,0.00,,,0.55,meteohub,2013-03-06 13:27:00,
2013-03-06 05:32:00,45.3,44.1,29.77,WNW,294,0.0,7.0,95,0.00,,,0.55,meteohub,2013-03-06 13:32:00,
2013-03-06 05:37:00,45.1,43.2,29.77,WNW,294,0.0,9.0,93,0.01,,,0.56,meteohub,2013-03-06 13:37:00,
2013-03-06 05:42:00,44.8,42.8,29.78,WNW,294,0.0,9.0,93,0.01,,,0.56,meteohub,2013-03-06 13:42:00,
2013-03-06 05:47:00,44.4,42.4,29.78,WNW,294,0.0,9.0,93,0.01,,,0.56,meteohub,2013-03-06 13:47:00,
2013-03-06 05:52:00,44.2,42.6,29.78,WNW,294,0.0,4.0,94,0.01,,,0.56,meteohub,2013-03-06 13:52:00,
2013-03-06 05:57:00,44.1,42.4,29.79,WNW,294,0.0,5.0,94,0.01,,,0.56,meteohub,2013-03-06 13:57:00,
2013-03-06 06:02:00,44.1,42.8,29.79,WNW,294,0.0,5.0,95,0.01,,,0.56,meteohub,2013-03-06 14:02:00,
2013-03-06 06:07:00,43.9,42.6,29.79,WNW,294,0.0,1.0,95,0.01,,,0.56,meteohub,2013-03-06 14:07:00,
2013-03-06 06:12:00,43.9,42.6,29.79,WNW,294,0.0,0.0,95,0.01,,,0.56,meteohub,2013-03-06 14:12:00,
2013-03-06 06:17:00,43.9,42.8,29.79,WNW,294,0.0,1.0,96,0.01,,,0.56,meteohub,2013-03-06 14:17:00,
2013-03-06 06:22:00,43.9,42.8,29.79,WNW,294,0.0,1.0,96,0.01,,,0.56,meteohub,2013-03-06 14:22:00,
2013-03-06 06:27:00,44.1,43.0,29.80,WNW,294,0.0,2.0,96,0.01,,,0.56,meteohub,2013-03-06 14:27:00,
2013-03-06 06:32:00,44.1,43.0,29.80,WNW,294,0.0,2.0,96,0.01,,,0.56,meteohub,2013-03-06 14:32:00,
2013-03-06 06:37:00,44.1,43.0,29.80,WNW,294,0.0,2.0,96,0.00,,,0.56,meteohub,2013-03-06 14:37:00,
2013-03-06 06:42:00,44.1,43.0,29.81,WNW,294,0.0,1.0,96,0.00,,,0.56,meteohub,2013-03-06 14:42:00,
2013-03-06 06:47:00,43.9,42.8,29.81,WNW,294,0.0,0.0,96,0.00,,,0.56,meteohub,2013-03-06 14:47:00,
2013-03-06 06:52:00,43.9,42.8,29.81,WNW,294,0.0,0.0,96,0.00,,,0.56,meteohub,2013-03-06 14:52:00,
2013-03-06 06:57:00,43.9,42.8,29.82,WNW,294,0.0,0.0,96,0.00,,,0.56,meteohub,2013-03-06 14:57:00,
2013-03-06 07:02:00,43.9,42.8,29.82,WNW,294,0.0,0.0,96,0.00,,,0.56,meteohub,2013-03-06 15:02:00,
2013-03-06 07:07:00,43.9,42.8,29.82,WNW,294,0.0,0.0,96,0.00,,,0.56,meteohub,2013-03-06 15:07:00,
2013-03-06 07:12:00,43.5,42.4,29.83,WNW,294,0.0,0.0,96,0.00,,,0.56,meteohub,2013-03-06 15:12:00,
2013-03-06 07:17:00,43.5,42.4,29.83,WNW,294,0.0,0.0,96,0.00,,,0.56,meteohub,2013-03-06 15:17:00,
2013-03-06 07:22:00,43.3,42.3,29.83,WNW,294,0.0,0.0,96,0.00,,,0.56,meteohub,2013-03-06 15:22:00,
2013-03-06 07:27:00,43.3,42.3,29.83,WNW,294,0.0,0.0,96,0.00,,,0.56,meteohub,2013-03-06 15:27:00,
2013-03-06 07:32:00,43.3,42.3,29.83,WNW,294,0.0,0.0,96,0.00,,,0.56,meteohub,2013-03-06 15:32:00,
2013-03-06 07:37:00,43.3,42.3,29.83,WNW,294,0.0,0.0,96,0.00,,,0.56,meteohub,2013-03-06 15:37:00,
2013-03-06 07:42:00,43.2,42.1,29.84,WNW,294,0.0,0.0,96,0.00,,,0.56,meteohub,2013-03-06 15:42:00,
2013-03-06 07:47:00,43.3,42.6,29.84,WNW,294,0.0,0.0,97,0.00,,,0.56,meteohub,2013-03-06 15:47:00,
2013-03-06 07:52:00,43.9,43.2,29.84,WNW,294,0.0,0.0,97,0.00,,,0.56,meteohub,2013-03-06 15:52:00,
2013-03-06 07:57:00,44.2,43.5,29.85,WNW,294,0.0,0.0,97,0.00,,,0.56,meteohub,2013-03-06 15:57:00,
2013-03-06 08:02:00,44.8,44.1,29.85,WNW,294,0.0,0.0,97,0.00,,,0.56,meteohub,2013-03-06 16:02:00,
2013-03-06 08:07:00,45.1,44.6,29.85,WNW,294,0.0,0.0,98,0.00,,,0.56,meteohub,2013-03-06 16:07:00,
2013-03-06 08:12:00,45.9,45.3,29.85,WNW,294,0.0,1.0,98,0.00,,,0.56,meteohub,2013-03-06 16:12:00,
2013-03-06 08:17:00,46.2,45.5,29.85,WNW,294,1.0,1.0,97,0.00,,,0.56,meteohub,2013-03-06 16:17:00,
2013-03-06 08:22:00,46.8,46.0,29.85,WNW,294,0.0,2.0,97,0.00,,,0.56,meteohub,2013-03-06 16:22:00,
2013-03-06 08:27:00,47.5,46.8,29.86,WNW,294,0.0,2.0,97,0.00,,,0.56,meteohub,2013-03-06 16:27:00,
2013-03-06 08:32:00,48.0,46.6,29.86,WNW,294,0.0,2.0,95,0.00,,,0.56,meteohub,2013-03-06 16:32:00,
2013-03-06 08:37:00,48.0,46.0,29.86,WNW,294,1.0,1.0,93,0.00,,,0.56,meteohub,2013-03-06 16:37:00,
2013-03-06 08:42:00,47.8,45.9,29.87,WNW,294,0.0,1.0,93,0.00,,,0.56,meteohub,2013-03-06 16:42:00,
2013-03-06 08:47:00,47.8,45.7,29.87,WNW,294,0.0,2.0,92,0.00,,,0.56,meteohub,2013-03-06 16:47:00,
2013-03-06 08:52:00,47.5,44.8,29.87,WNW,294,0.0,2.0,90,0.00,,,0.56,meteohub,2013-03-06 16:52:00,
2013-03-06 08:57:00,47.7,45.5,29.88,WNW,294,0.0,1.0,92,0.00,,,0.56,meteohub,2013-03-06 16:57:00,
2013-03-06 09:02:00,48.0,45.9,29.88,WNW,294,0.0,2.0,92,0.00,,,0.56,meteohub,2013-03-06 17:02:00,
2013-03-06 09:07:00,48.6,45.7,29.88,WNW,294,0.0,2.0,90,0.00,,,0.56,meteohub,2013-03-06 17:07:00,
2013-03-06 09:12:00,48.7,46.2,29.88,WNW,294,0.0,3.0,91,0.00,,,0.56,meteohub,2013-03-06 17:12:00,
2013-03-06 09:17:00,48.4,44.1,29.88,WNW,294,0.0,8.0,85,0.00,,,0.56,meteohub,2013-03-06 17:17:00,
2013-03-06 09:22:00,48.6,45.5,29.88,WNW,295,0.0,8.0,89,0.00,,,0.56,meteohub,2013-03-06 17:22:00,
2013-03-06 09:27:00,48.7,45.3,29.88,WNW,295,1.0,8.0,88,0.00,,,0.56,meteohub,2013-03-06 17:27:00,
2013-03-06 09:32:00,49.1,45.3,29.88,WNW,297,0.0,4.0,87,0.00,,,0.56,meteohub,2013-03-06 17:32:00,
2013-03-06 09:37:00,49.1,45.3,29.88,WNW,297,0.0,4.0,87,0.00,,,0.56,meteohub,2013-03-06 17:37:00,
2013-03-06 09:42:00,48.7,45.3,29.88,WNW,297,0.0,4.0,88,0.00,,,0.56,meteohub,2013-03-06 17:42:00,
2013-03-06 09:47:00,48.7,44.8,29.88,WNW,297,1.0,4.0,86,0.00,,,0.56,meteohub,2013-03-06 17:47:00,
2013-03-06 09:52:00,49.1,44.2,29.88,WNW,297,0.0,5.0,83,0.00,,,0.56,meteohub,2013-03-06 17:52:00,
2013-03-06 09:57:00,49.6,44.4,29.89,WNW,297,0.0,6.0,82,0.00,,,0.56,meteohub,2013-03-06 17:57:00,
2013-03-06 10:02:00,50.0,45.7,29.89,WNW,297,3.0,6.0,85,0.00,,,0.56,meteohub,2013-03-06 18:02:00,
2013-03-06 10:08:00,50.4,45.1,29.89,WNW,297,1.0,4.0,82,0.00,,,0.56,meteohub,2013-03-06 18:08:00,
2013-03-06 10:13:00,50.5,43.9,29.90,NNW,329,3.0,6.0,78,0.00,,,0.56,meteohub,2013-03-06 18:13:00,
2013-03-06 10:18:00,50.9,44.6,29.90,WNW,303,1.0,6.0,79,0.00,,,0.56,meteohub,2013-03-06 18:18:00,
2013-03-06 10:23:00,51.6,45.0,29.90,WNW,303,0.0,6.0,78,0.00,,,0.56,meteohub,2013-03-06 18:23:00,
2013-03-06 10:28:00,52.2,44.8,29.90,NNW,340,1.0,5.0,76,0.00,,,0.56,meteohub,2013-03-06 18:28:00,
2013-03-06 10:33:00,52.3,45.7,29.90,NNW,338,3.0,7.0,78,0.00,,,0.56,meteohub,2013-03-06 18:33:00,
2013-03-06 10:38:00,52.3,45.0,29.90,NNW,336,0.0,7.0,76,0.00,,,0.56,meteohub,2013-03-06 18:38:00,
2013-03-06 10:43:00,52.3,44.6,29.90,NW,314,0.0,7.0,75,0.00,,,0.56,meteohub,2013-03-06 18:43:00,
2013-03-06 10:48:00,52.5,44.8,29.90,North,355,2.0,7.0,75,0.00,,,0.56,meteohub,2013-03-06 18:48:00,
2013-03-06 10:53:00,52.3,43.9,29.90,NNW,331,3.0,10.0,73,0.00,,,0.56,meteohub,2013-03-06 18:53:00,
2013-03-06 10:58:00,51.8,43.3,29.90,NNW,336,0.0,10.0,73,0.00,,,0.56,meteohub,2013-03-06 18:58:00,
2013-03-06 11:03:00,51.3,43.3,29.90,NNW,336,3.0,10.0,74,0.00,,,0.56,meteohub,2013-03-06 19:03:00,
2013-03-06 11:08:00,51.4,43.5,29.90,NNW,336,0.0,6.0,74,0.00,,,0.56,meteohub,2013-03-06 19:08:00,
2013-03-06 11:13:00,51.3,43.5,29.91,NNW,345,3.0,5.0,75,0.00,,,0.56,meteohub,2013-03-06 19:13:00,
2013-03-06 11:18:00,50.2,41.9,29.91,NW,306,0.0,5.0,73,0.00,,,0.56,meteohub,2013-03-06 19:18:00,
2013-03-06 11:23:00,49.5,42.8,29.91,NW,306,1.0,10.0,78,0.00,,,0.56,meteohub,2013-03-06 19:23:00,
2013-03-06 11:28:00,48.9,43.3,29.93,NW,306,1.0,10.0,81,0.01,,,0.57,meteohub,2013-03-06 19:28:00,
2013-03-06 11:33:00,48.7,44.8,29.93,WNW,285,0.0,10.0,86,0.01,,,0.57,meteohub,2013-03-06 19:33:00,
2013-03-06 11:38:00,48.9,44.6,29.93,WNW,282,1.0,10.0,85,0.01,,,0.57,meteohub,2013-03-06 19:38:00,
2013-03-06 11:43:00,49.3,45.0,29.92,WNW,282,0.0,10.0,85,0.01,,,0.57,meteohub,2013-03-06 19:43:00,
2013-03-06 11:48:00,49.8,45.9,29.92,WNW,282,1.0,10.0,86,0.01,,,0.57,meteohub,2013-03-06 19:48:00,
2013-03-06 11:53:00,50.4,45.3,29.92,WNW,282,0.0,4.0,83,0.01,,,0.57,meteohub,2013-03-06 19:53:00,
2013-03-06 11:58:00,50.7,44.4,29.92,WNW,286,0.0,3.0,79,0.01,,,0.57,meteohub,2013-03-06 19:58:00,
2013-03-06 12:03:00,51.1,44.4,29.92,NNE,27,1.0,4.0,78,0.01,,,0.57,meteohub,2013-03-06 20:03:00,
2013-03-06 12:08:00,51.3,44.2,29.92,NNE,23,1.0,10.0,77,0.01,,,0.57,meteohub,2013-03-06 20:08:00,
2013-03-06 12:13:00,51.3,43.0,29.92,West,268,2.0,10.0,73,0.01,,,0.57,meteohub,2013-03-06 20:13:00,
2013-03-06 12:18:00,51.4,44.4,29.92,NW,325,1.0,11.0,77,0.01,,,0.57,meteohub,2013-03-06 20:18:00,
2013-03-06 12:23:00,51.6,43.5,29.92,NW,321,1.0,11.0,74,0.01,,,0.57,meteohub,2013-03-06 20:23:00,
2013-03-06 12:28:00,51.6,43.0,29.91,WNW,288,0.0,7.0,72,0.00,,,0.57,meteohub,2013-03-06 20:28:00,
2013-03-06 12:33:00,51.4,43.2,29.91,WNW,285,3.0,14.0,73,0.00,,,0.57,meteohub,2013-03-06 20:33:00,
2013-03-06 12:38:00,51.8,43.3,29.91,WNW,285,2.0,14.0,73,0.00,,,0.57,meteohub,2013-03-06 20:38:00,
2013-03-06 12:43:00,52.2,43.0,29.91,WNW,286,2.0,14.0,71,0.00,,,0.57,meteohub,2013-03-06 20:43:00,
2013-03-06 12:48:00,52.0,42.8,29.91,West,275,2.0,6.0,71,0.00,,,0.57,meteohub,2013-03-06 20:48:00,
2013-03-06 12:53:00,51.3,44.2,29.91,West,281,0.0,6.0,77,0.00,,,0.57,meteohub,2013-03-06 20:53:00,
2013-03-06 12:58:00,51.1,44.4,29.90,WNW,288,1.0,13.0,78,0.00,,,0.57,meteohub,2013-03-06 20:58:00,
2013-03-06 13:03:00,50.7,43.2,29.90,West,261,1.0,13.0,75,0.00,,,0.57,meteohub,2013-03-06 21:03:00,
2013-03-06 13:08:00,50.9,44.2,29.90,West,261,0.0,9.0,78,0.00,,,0.57,meteohub,2013-03-06 21:08:00,
2013-03-06 13:13:00,51.1,43.5,29.90,West,269,0.0,9.0,75,0.00,,,0.57,meteohub,2013-03-06 21:13:00,
2013-03-06 13:18:00,51.3,43.5,29.90,West,269,0.0,9.0,75,0.00,,,0.57,meteohub,2013-03-06 21:18:00,
2013-03-06 13:23:00,51.6,43.0,29.90,West,272,0.0,6.0,72,0.00,,,0.57,meteohub,2013-03-06 21:23:00,
2013-03-06 13:29:00,51.8,41.2,29.90,West,276,1.0,6.0,67,0.00,,,0.57,meteohub,2013-03-06 21:29:00,
2013-03-06 13:34:00,52.2,42.6,29.90,West,275,0.0,5.0,70,0.00,,,0.57,meteohub,2013-03-06 21:34:00,
2013-03-06 13:39:00,52.3,42.1,29.90,West,275,3.0,6.0,68,0.00,,,0.57,meteohub,2013-03-06 21:39:00,
2013-03-06 13:44:00,52.2,42.3,29.90,West,273,0.0,6.0,69,0.00,,,0.57,meteohub,2013-03-06 21:44:00,
2013-03-06 13:49:00,52.3,43.9,29.90,West,275,4.0,7.0,73,0.00,,,0.57,meteohub,2013-03-06 21:49:00,
2013-03-06 13:54:00,52.3,42.1,29.90,WNW,292,3.0,7.0,68,0.00,,,0.57,meteohub,2013-03-06 21:54:00,
2013-03-06 13:59:00,52.2,41.9,29.90,NNW,333,1.0,9.0,68,0.00,,,0.57,meteohub,2013-03-06 21:59:00,
2013-03-06 14:04:00,52.3,41.4,29.90,NW,323,2.0,9.0,66,0.00,,,0.57,meteohub,2013-03-06 22:04:00,
2013-03-06 14:09:00,52.3,41.0,29.90,NNW,329,0.0,9.0,65,0.00,,,0.57,meteohub,2013-03-06 22:09:00,
2013-03-06 14:14:00,52.3,41.0,29.90,NNW,329,2.0,6.0,65,0.00,,,0.57,meteohub,2013-03-06 22:14:00,
2013-03-06 14:19:00,52.2,42.3,29.90,NW,316,3.0,6.0,69,0.00,,,0.57,meteohub,2013-03-06 22:19:00,
2013-03-06 14:24:00,52.3,42.1,29.89,NW,313,1.0,7.0,68,0.00,,,0.57,meteohub,2013-03-06 22:24:00,
2013-03-06 14:29:00,52.3,43.9,29.89,NW,310,3.0,7.0,73,0.00,,,0.57,meteohub,2013-03-06 22:29:00,
2013-03-06 14:34:00,52.3,41.7,29.89,NW,326,1.0,7.0,67,0.00,,,0.57,meteohub,2013-03-06 22:34:00,
2013-03-06 14:39:00,52.0,41.4,29.89,WNW,282,2.0,6.0,67,0.00,,,0.57,meteohub,2013-03-06 22:39:00,
2013-03-06 14:44:00,51.6,41.4,29.89,WNW,286,0.0,9.0,68,0.00,,,0.57,meteohub,2013-03-06 22:44:00,
2013-03-06 14:49:00,51.4,40.5,29.89,West,279,1.0,9.0,66,0.00,,,0.57,meteohub,2013-03-06 22:49:00,
2013-03-06 14:54:00,51.8,40.5,29.90,West,281,4.0,9.0,65,0.00,,,0.57,meteohub,2013-03-06 22:54:00,
2013-03-06 14:59:00,52.0,41.7,29.90,West,281,0.0,9.0,68,0.00,,,0.57,meteohub,2013-03-06 22:59:00,
2013-03-06 15:04:00,52.0,40.1,29.90,West,281,0.0,9.0,64,0.00,,,0.57,meteohub,2013-03-06 23:04:00,
2013-03-06 15:09:00,52.0,39.7,29.90,West,281,1.0,9.0,63,0.00,,,0.57,meteohub,2013-03-06 23:09:00,
2013-03-06 15:14:00,52.0,40.1,29.90,West,281,2.0,5.0,64,0.00,,,0.57,meteohub,2013-03-06 23:14:00,
2013-03-06 15:19:00,51.8,41.2,29.90,West,281,0.0,5.0,67,0.00,,,0.57,meteohub,2013-03-06 23:19:00,
2013-03-06 15:24:00,51.6,39.0,29.91,West,281,2.0,5.0,62,0.00,,,0.57,meteohub,2013-03-06 23:24:00,
2013-03-06 15:29:00,51.6,39.9,29.91,West,281,3.0,5.0,64,0.00,,,0.57,meteohub,2013-03-06 23:29:00,
2013-03-06 15:34:00,51.6,42.1,29.91,West,279,0.0,6.0,70,0.00,,,0.57,meteohub,2013-03-06 23:34:00,
2013-03-06 15:39:00,51.4,42.4,29.90,West,280,1.0,7.0,71,0.00,,,0.57,meteohub,2013-03-06 23:39:00,
2013-03-06 15:44:00,51.3,42.6,29.90,West,280,4.0,7.0,72,0.00,,,0.57,meteohub,2013-03-06 23:44:00,
2013-03-06 15:49:00,50.9,41.2,29.90,West,281,0.0,7.0,69,0.00,,,0.57,meteohub,2013-03-06 23:49:00,
2013-03-06 15:54:00,50.9,41.5,29.90,West,281,1.0,5.0,70,0.00,,,0.57,meteohub,2013-03-06 23:54:00,
2013-03-06 15:59:00,51.1,41.2,29.90,WNW,283,0.0,5.0,69,0.00,,,0.57,meteohub,2013-03-06 23:59:00,
2013-03-06 16:04:00,51.1,40.5,29.90,WNW,282,0.0,5.0,67,0.00,,,0.57,meteohub,2013-03-07 00:04:00,
2013-03-06 16:09:00,51.1,41.2,29.90,WNW,282,3.0,7.0,69,0.00,,,0.00,meteohub,2013-03-07 00:09:00,
2013-03-06 16:14:00,51.1,41.7,29.90,WNW,282,0.0,7.0,70,0.00,,,0.00,meteohub,2013-03-07 00:14:00,
2013-03-06 16:19:00,51.1,41.2,29.90,WNW,282,3.0,7.0,69,0.00,,,0.00,meteohub,2013-03-07 00:19:00,
2013-03-06 16:25:00,50.7,41.0,29.90,WNW,282,2.0,7.0,69,0.00,,,0.00,meteohub,2013-03-07 00:25:00,
2013-03-06 16:30:00,50.5,40.8,29.90,West,281,1.0,5.0,69,0.00,,,0.00,meteohub,2013-03-07 00:30:00,
2013-03-06 16:35:00,50.5,43.0,29.90,West,281,0.0,5.0,75,0.00,,,0.00,meteohub,2013-03-07 00:35:00,
2013-03-06 16:40:00,50.2,40.8,29.90,West,281,1.0,5.0,70,0.00,,,0.00,meteohub,2013-03-07 00:40:00,
2013-03-06 16:45:00,50.2,42.3,29.90,West,281,0.0,5.0,74,0.00,,,0.00,meteohub,2013-03-07 00:45:00,
2013-03-06 16:50:00,50.0,42.4,29.90,West,281,0.0,5.0,75,0.00,,,0.00,meteohub,2013-03-07 00:50:00,
2013-03-06 16:55:00,49.6,42.8,29.90,West,281,0.0,4.0,77,0.00,,,0.00,meteohub,2013-03-07 00:55:00,
2013-03-06 17:00:00,49.5,40.8,29.90,West,281,0.0,4.0,72,0.00,,,0.00,meteohub,2013-03-07 01:00:00,
2013-03-06 17:05:00,49.3,40.6,29.90,West,281,0.0,4.0,72,0.00,,,0.00,meteohub,2013-03-07 01:05:00,
2013-03-06 17:10:00,49.1,42.8,29.90,West,281,0.0,4.0,79,0.00,,,0.00,meteohub,2013-03-07 01:10:00,
2013-03-06 17:15:00,48.7,42.4,29.90,West,281,0.0,4.0,79,0.00,,,0.00,meteohub,2013-03-07 01:15:00,
2013-03-06 17:20:00,48.6,43.0,29.90,West,281,0.0,1.0,81,0.00,,,0.00,meteohub,2013-03-07 01:20:00,
2013-03-06 17:25:00,48.4,42.4,29.90,West,281,0.0,0.0,80,0.00,,,0.00,meteohub,2013-03-07 01:25:00,
2013-03-06 17:30:00,47.8,41.9,29.90,West,281,0.0,0.0,80,0.00,,,0.00,meteohub,2013-03-07 01:30:00,
2013-03-06 17:35:00,47.7,42.4,29.90,West,281,0.0,1.0,82,0.00,,,0.00,meteohub,2013-03-07 01:35:00,
2013-03-06 17:40:00,47.5,42.6,29.90,West,281,0.0,1.0,83,0.00,,,0.00,meteohub,2013-03-07 01:40:00,
2013-03-06 17:45:00,47.1,42.3,29.90,West,281,0.0,1.0,83,0.00,,,0.00,meteohub,2013-03-07 01:45:00,
2013-03-06 17:50:00,46.9,42.4,29.90,West,281,0.0,0.0,84,0.00,,,0.00,meteohub,2013-03-07 01:50:00,
2013-03-06 17:55:00,46.8,42.3,29.90,West,281,0.0,0.0,84,0.00,,,0.00,meteohub,2013-03-07 01:55:00,
2013-03-06 18:00:00,46.6,42.1,29.90,West,281,0.0,0.0,84,0.00,,,0.00,meteohub,2013-03-07 02:00:00,
2013-03-06 18:05:00,46.2,41.7,29.90,West,281,0.0,0.0,84,0.00,,,0.00,meteohub,2013-03-07 02:05:00,
2013-03-06 18:10:00,46.0,41.5,29.90,West,281,0.0,0.0,84,0.00,,,0.00,meteohub,2013-03-07 02:10:00,
2013-03-06 18:15:00,45.7,40.8,29.90,West,281,0.0,0.0,83,0.00,,,0.00,meteohub,2013-03-07 02:15:00,
2013-03-06 18:20:00,45.1,40.6,29.90,West,281,0.0,0.0,84,0.00,,,0.00,meteohub,2013-03-07 02:20:00,
2013-03-06 18:25:00,45.0,40.6,29.90,West,281,0.0,0.0,85,0.00,,,0.00,meteohub,2013-03-07 02:25:00,
2013-03-06 18:30:00,44.6,40.5,29.90,West,281,0.0,0.0,85,0.00,,,0.00,meteohub,2013-03-07 02:30:00,
2013-03-06 18:35:00,44.2,40.3,29.90,West,281,0.0,0.0,86,0.00,,,0.00,meteohub,2013-03-07 02:35:00,
2013-03-06 18:40:00,44.1,40.5,29.90,West,281,0.0,0.0,87,0.00,,,0.00,meteohub,2013-03-07 02:40:00,
2013-03-06 18:45:00,43.9,41.7,29.90,West,281,0.0,0.0,92,0.00,,,0.00,meteohub,2013-03-07 02:45:00,
2013-03-06 18:50:00,43.7,40.5,29.90,West,281,0.0,0.0,88,0.00,,,0.00,meteohub,2013-03-07 02:50:00,
2013-03-06 18:55:00,43.5,40.3,29.90,West,281,0.0,0.0,88,0.00,,,0.00,meteohub,2013-03-07 02:55:00,
2013-03-06 19:00:00,43.3,40.3,29.90,West,281,0.0,0.0,89,0.00,,,0.00,meteohub,2013-03-07 03:00:00,
2013-03-06 19:05:00,43.2,40.1,29.90,West,281,0.0,0.0,89,0.00,,,0.00,meteohub,2013-03-07 03:05:00,
2013-03-06 19:10:00,43.0,39.9,29.90,West,281,0.0,0.0,89,0.00,,,0.00,meteohub,2013-03-07 03:10:00,
2013-03-06 19:15:00,42.6,39.6,29.90,West,281,0.0,0.0,89,0.00,,,0.00,meteohub,2013-03-07 03:15:00,
2013-03-06 19:20:00,42.4,39.4,29.90,West,281,0.0,0.0,89,0.00,,,0.00,meteohub,2013-03-07 03:20:00,
2013-03-06 19:25:00,42.3,39.6,29.90,West,281,0.0,0.0,90,0.00,,,0.00,meteohub,2013-03-07 03:25:00,
2013-03-06 19:30:00,42.3,39.6,29.90,West,281,0.0,0.0,90,0.00,,,0.00,meteohub,2013-03-07 03:30:00,
2013-03-06 19:35:00,42.1,39.6,29.90,West,281,0.0,0.0,91,0.00,,,0.00,meteohub,2013-03-07 03:35:00,
2013-03-06 19:40:00,41.9,39.4,29.90,West,281,0.0,0.0,91,0.00,,,0.00,meteohub,2013-03-07 03:40:00,
2013-03-06 19:45:00,42.1,39.9,29.90,West,281,0.0,0.0,92,0.00,,,0.00,meteohub,2013-03-07 03:45:00,
2013-03-06 19:50:00,42.3,39.7,29.90,West,281,0.0,1.0,91,0.00,,,0.00,meteohub,2013-03-07 03:50:00,
2013-03-06 19:55:00,42.3,39.7,29.90,West,281,0.0,1.0,91,0.00,,,0.00,meteohub,2013-03-07 03:55:00,
2013-03-06 20:00:00,42.3,39.6,29.90,West,281,0.0,0.0,90,0.00,,,0.00,meteohub,2013-03-07 04:00:00,
2013-03-06 20:05:00,42.1,39.4,29.90,West,281,0.0,0.0,90,0.00,,,0.00,meteohub,2013-03-07 04:05:00,
2013-03-06 20:10:00,41.7,39.0,29.90,West,281,0.0,0.0,90,0.00,,,0.00,meteohub,2013-03-07 04:10:00,
2013-03-06 20:16:00,41.5,38.8,29.90,West,281,0.0,0.0,90,0.00,,,0.00,meteohub,2013-03-07 04:16:00,
2013-03-06 20:21:00,41.4,39.0,29.90,West,281,0.0,0.0,91,0.00,,,0.00,meteohub,2013-03-07 04:21:00,
2013-03-06 20:26:00,41.2,39.0,29.90,West,281,0.0,0.0,92,0.00,,,0.00,meteohub,2013-03-07 04:26:00,
2013-03-06 20:31:00,40.8,38.5,29.90,West,281,0.0,0.0,91,0.00,,,0.00,meteohub,2013-03-07 04:31:00,
2013-03-06 20:36:00,40.6,38.5,29.90,West,281,0.0,0.0,92,0.00,,,0.00,meteohub,2013-03-07 04:36:00,
2013-03-06 20:41:00,40.5,38.3,29.89,West,281,0.0,0.0,92,0.00,,,0.00,meteohub,2013-03-07 04:41:00,
2013-03-06 20:46:00,40.3,38.1,29.89,West,281,0.0,0.0,92,0.00,,,0.00,meteohub,2013-03-07 04:46:00,
2013-03-06 20:51:00,39.9,37.8,29.89,West,281,0.0,0.0,92,0.00,,,0.00,meteohub,2013-03-07 04:51:00,
2013-03-06 20:56:00,39.7,37.6,29.89,West,281,0.0,0.0,92,0.00,,,0.00,meteohub,2013-03-07 04:56:00,
2013-03-06 21:00:00,39.7,37.9,29.89,West,281,0.0,0.0,93,0.00,,,0.00,meteohub,2013-03-07 05:00:00,
2013-03-06 21:05:00,39.6,37.8,29.89,West,281,0.0,0.0,93,0.00,,,0.00,meteohub,2013-03-07 05:05:00,
2013-03-06 21:10:00,39.4,37.6,29.89,West,281,0.0,0.0,93,0.00,,,0.00,meteohub,2013-03-07 05:10:00,
2013-03-06 21:15:00,39.2,37.4,29.89,West,281,0.0,0.0,93,0.00,,,0.00,meteohub,2013-03-07 05:15:00,
2013-03-06 21:20:00,39.0,37.2,29.89,West,281,0.0,0.0,93,0.00,,,0.00,meteohub,2013-03-07 05:20:00,
2013-03-06 21:25:00,38.8,37.0,29.89,West,281,0.0,0.0,93,0.00,,,0.00,meteohub,2013-03-07 05:25:00,
2013-03-06 21:30:00,38.7,37.0,29.89,West,281,0.0,0.0,94,0.00,,,0.00,meteohub,2013-03-07 05:30:00,
2013-03-06 21:35:00,38.7,37.0,29.89,West,281,0.0,0.0,94,0.00,,,0.00,meteohub,2013-03-07 05:35:00,
2013-03-06 21:40:00,38.5,36.9,29.89,West,281,0.0,0.0,94,0.00,,,0.00,meteohub,2013-03-07 05:40:00,
2013-03-06 21:45:00,38.5,36.9,29.89,West,281,0.0,0.0,94,0.00,,,0.00,meteohub,2013-03-07 05:45:00,
2013-03-06 21:50:00,38.3,36.7,29.89,West,281,0.0,0.0,94,0.00,,,0.00,meteohub,2013-03-07 05:50:00,
2013-03-06 21:55:00,38.3,37.0,29.89,West,281,0.0,0.0,95,0.00,,,0.00,meteohub,2013-03-07 05:55:00,
2013-03-06 22:00:00,38.5,37.2,29.89,West,281,0.0,0.0,95,0.00,,,0.00,meteohub,2013-03-07 06:00:00,
2013-03-06 22:05:00,38.5,37.2,29.89,West,281,0.0,0.0,95,0.00,,,0.00,meteohub,2013-03-07 06:05:00,
2013-03-06 22:10:00,38.5,37.2,29.89,West,281,0.0,0.0,95,0.00,,,0.00,meteohub,2013-03-07 06:10:00,
2013-03-06 22:15:00,38.3,37.0,29.89,West,281,0.0,0.0,95,0.00,,,0.00,meteohub,2013-03-07 06:15:00,
2013-03-06 22:20:00,38.1,36.9,29.89,West,281,0.0,0.0,95,0.00,,,0.00,meteohub,2013-03-07 06:20:00,
2013-03-06 22:25:00,37.9,36.3,29.88,West,281,0.0,0.0,94,0.00,,,0.00,meteohub,2013-03-07 06:25:00,
2013-03-06 22:30:00,37.8,36.1,29.88,West,281,0.0,0.0,94,0.00,,,0.00,meteohub,2013-03-07 06:30:00,
2013-03-06 22:35:00,37.8,36.5,29.88,West,281,0.0,0.0,95,0.00,,,0.00,meteohub,2013-03-07 06:35:00,
2013-03-06 22:40:00,37.6,36.3,29.88,West,281,0.0,0.0,95,0.00,,,0.00,meteohub,2013-03-07 06:40:00,
2013-03-06 22:45:00,37.6,36.3,29.88,West,281,0.0,0.0,95,0.00,,,0.00,meteohub,2013-03-07 06:45:00,
2013-03-06 22:50:00,37.6,36.3,29.88,West,281,0.0,0.0,95,0.00,,,0.00,meteohub,2013-03-07 06:50:00,
2013-03-06 22:55:00,37.4,36.1,29.87,West,281,0.0,0.0,95,0.00,,,0.00,meteohub,2013-03-07 06:55:00,
2013-03-06 23:00:00,37.2,36.0,29.87,West,281,0.0,0.0,95,0.00,,,0.00,meteohub,2013-03-07 07:00:00,
2013-03-06 23:05:00,37.2,36.0,29.87,West,281,0.0,0.0,95,0.00,,,0.00,meteohub,2013-03-07 07:05:00,
2013-03-06 23:10:00,37.0,35.8,29.87,West,281,0.0,0.0,95,0.00,,,0.00,meteohub,2013-03-07 07:10:00,
2013-03-06 23:15:00,37.0,35.8,29.87,West,281,0.0,0.0,95,0.00,,,0.00,meteohub,2013-03-07 07:15:00,
2013-03-06 23:20:00,36.9,35.6,29.87,West,281,0.0,0.0,95,0.00,,,0.00,meteohub,2013-03-07 07:20:00,
2013-03-06 23:25:00,36.9,35.6,29.87,West,281,0.0,0.0,95,0.00,,,0.00,meteohub,2013-03-07 07:25:00,
2013-03-06 23:30:00,36.9,35.6,29.87,West,281,0.0,0.0,95,0.00,,,0.00,meteohub,2013-03-07 07:30:00,
2013-03-06 23:35:00,36.9,35.6,29.87,West,281,0.0,0.0,95,0.00,,,0.00,meteohub,2013-03-07 07:35:00,
2013-03-06 23:40:00,36.9,35.8,29.87,West,281,0.0,0.0,96,0.00,,,0.00,meteohub,2013-03-07 07:40:00,
2013-03-06 23:45:00,36.9,35.8,29.87,West,281,0.0,0.0,96,0.00,,,0.00,meteohub,2013-03-07 07:45:00,
2013-03-06 23:50:00,36.7,35.6,29.87,West,281,0.0,0.0,96,0.00,,,0.00,meteohub,2013-03-07 07:50:00,
2013-03-06 23:55:00,36.7,35.6,29.87,West,281,0.0,0.0,96,0.00,,,0.00,meteohub,2013-03-07 07:55:00,